Date,TemperatureHighF,TemperatureAvgF,TemperatureLowF,DewpointHighF,DewpointAvgF,DewpointLowF,HumidityHigh,HumidityAvg,HumidityLow,PressureMaxIn,PressureMinIn,WindSpeedMaxMPH,WindSpeedAvgMPH,GustSpeedMaxMPH,PrecipitationSumIn
2014-1-1,53.0,41.4,34.0,46.0,40.4,34.0,99,96,78,30.46,30.32,0,0,0,0.00
2014-1-2,54.0,47.2,41.0,50.0,45.7,40.0,99,95,84,30.32,30.01,3,0,15,0.00
2014-1-3,46.0,40.4,37.0,45.0,39.0,36.0,98,95,87,30.27,30.04,5,1,17,0.00
2014-1-4,46.0,34.8,31.0,39.0,31.7,-99.9,99,93,76,30.40,30.27,0,0,1,0.00
2014-1-5,50.0,36.7,31.0,41.0,34.2,31.0,98,90,69,30.43,30.30,1,0,4,0.00
2014-1-6,46.0,39.9,35.0,42.0,37.3,32.0,95,90,81,30.29,30.09,0,0,0,0.00
2014-1-7,45.0,42.1,39.0,45.0,41.5,38.0,99,98,95,30.11,29.98,0,0,0,0.00
2014-1-8,46.0,43.4,41.0,46.0,43.3,40.0,99,99,98,30.04,29.75,4,0,17,0.00
2014-1-9,45.0,41.9,40.0,44.0,41.3,39.0,99,98,97,30.02,29.78,4,1,23,0.00
2014-1-10,47.0,44.8,43.0,46.0,43.8,43.0,99,97,92,30.05,29.68,7,1,22,0.00
2014-1-11,49.0,43.2,40.0,49.0,42.6,40.0,99,98,97,29.75,29.38,9,1,30,0.00
2014-1-12,47.0,40.3,36.0,46.0,40.0,36.0,99,99,98,30.28,29.75,4,1,18,0.00
2014-1-13,50.0,47.7,46.0,49.0,46.8,45.0,99,96,94,30.57,30.29,8,3,26,0.00
2014-1-14,52.0,46.0,39.0,48.0,44.5,38.0,98,95,84,30.65,30.57,4,0,13,0.00
2014-2-7,35.0,24.8,17.0,32.0,22.3,16.0,96,90,79,29.86,29.65,2,0,8,0.00
2014-2-8,35.0,30.0,27.0,27.0,24.7,23.0,97,81,63,29.95,29.70,5,2,17,0.00
2014-2-9,39.0,33.6,28.0,38.0,32.6,26.0,98,97,92,30.03,29.91,0,0,0,0.00
2014-2-10,45.0,39.5,34.0,44.0,39.3,34.0,99,99,97,30.05,30.00,2,0,7,0.00
2014-2-11,50.0,43.2,40.0,48.0,42.8,40.0,99,98,90,30.11,29.73,1,0,3,0.00
2014-2-12,56.0,46.9,40.0,49.0,43.7,40.0,100,90,65,29.89,29.60,8,2,22,0.00
2014-2-13,50.0,45.0,40.0,47.0,43.8,39.0,100,96,85,30.09,29.75,7,2,26,0.00
2014-2-14,48.0,43.1,39.0,47.0,42.5,39.0,100,98,93,29.94,29.66,7,1,18,0.00
2014-2-15,45.0,39.6,36.0,45.0,37.2,-99.9,100,97,97,29.94,29.37,9,1,27,0.00
2014-2-16,47.0,40.1,37.0,43.0,38.9,36.0,99,96,78,30.02,29.67,4,0,17,0.00
2014-3-15,62.0,45.6,39.0,55.0,42.1,-99.9,99,94,75,30.33,30.18,2,0,4,0.00
2014-3-16,52.0,47.9,37.0,51.0,44.9,-99.9,99,95,96,30.21,29.89,3,1,13,0.00
2014-3-17,44.0,40.1,37.0,42.0,38.5,36.0,99,94,75,30.24,29.90,5,2,18,0.00
2014-3-18,56.0,43.8,34.0,44.0,39.3,34.0,98,86,61,30.31,30.16,2,0,9,0.00
2014-3-19,50.0,41.5,38.0,47.0,40.4,37.0,99,97,88,30.17,30.00,7,1,17,0.00
2014-3-20,47.0,40.7,38.0,42.0,38.5,36.0,97,92,75,30.29,30.18,6,2,17,0.00
2014-3-21,40.0,38.8,38.0,39.0,37.8,37.0,98,98,97,30.29,30.27,0,0,0,0.00
2014-4-16,54.0,49.2,47.0,52.0,47.7,45.0,97,95,83,0.00,40.00,3,0,11,56.09
2014-4-17,54.0,50.1,46.0,53.0,49.1,45.0,98,97,95,0.00,40.00,7,1,20,72.26
2014-4-18,57.0,47.1,41.0,46.0,42.4,40.0,97,86,56,0.00,40.00,4,1,17,70.75
2014-4-19,52.0,44.5,38.0,49.0,41.9,-99.9,99,95,82,0.00,40.00,4,0,18,83.77
2014-4-20,60.0,47.9,42.0,48.0,44.3,41.0,98,90,53,0.00,40.00,3,0,5,65.62
2014-4-21,69.0,51.9,44.0,51.0,46.2,43.0,97,84,44,0.00,40.00,6,1,15,92.99
2014-4-22,51.0,46.1,42.0,49.0,43.5,41.0,98,92,72,0.00,40.00,6,2,18,91.99
2014-4-23,46.0,43.5,41.0,45.0,42.5,40.0,98,98,96,0.00,40.00,0,0,0,69.49
2014-4-24,51.0,45.9,43.0,49.0,45.4,42.0,99,98,91,0.00,40.00,2,0,9,0.00
2014-4-25,49.0,44.8,43.0,46.0,43.0,42.0,99,94,85,0.00,40.00,4,1,15,0.00
2014-4-26,56.0,44.8,43.0,45.0,39.3,-99.9,97,87,51,0.00,40.00,3,1,14,0.00
2014-4-27,47.0,44.0,41.0,46.0,42.9,40.0,98,97,94,0.00,40.00,4,1,11,0.00
2014-4-29,77.0,61.1,45.0,47.0,41.8,37.0,97,58,24,0.00,40.00,7,2,14,0.00
2014-4-30,84.0,69.7,47.0,45.0,40.1,32.0,79,39,16,0.00,40.00,6,2,18,0.00
2014-5-1,92.0,81.5,57.0,52.0,41.1,31.0,69,28,12,0.00,40.00,7,2,18,0.00
2014-5-2,77.0,63.9,51.0,56.0,50.5,46.0,89,65,34,0.00,40.00,7,2,17,0.00
2014-5-3,58.0,53.6,52.0,54.0,47.8,-99.9,97,85,63,0.00,40.00,3,1,14,0.00
2014-5-4,56.0,51.1,48.0,54.0,50.0,47.0,98,97,90,0.00,40.00,1,0,3,0.00
2014-5-5,59.0,50.8,47.0,52.0,48.8,46.0,98,94,73,0.00,40.00,5,1,15,0.00
2014-5-13,87.0,82.4,76.0,52.0,44.5,35.0,43,28,17,0.00,40.00,3,1,8,0.00
2014-5-14,92.0,71.2,54.0,55.0,46.7,32.0,84,53,12,0.00,40.00,2,0,7,0.00
2014-5-15,88.0,72.6,57.0,58.0,53.7,50.0,83,55,27,0.00,40.00,4,2,16,0.00
2014-5-16,73.0,64.8,56.0,54.0,51.2,48.0,86,63,45,0.00,40.00,8,3,19,0.00
2014-5-17,69.0,60.1,55.0,53.0,48.3,-99.9,89,69,46,0.00,40.00,7,3,17,0.00
2014-5-18,56.0,53.4,52.0,51.0,49.4,49.0,91,86,81,0.00,40.00,0,0,0,0.00
2014-5-23,67.0,63.0,58.0,61.0,58.4,55.0,92,85,73,0.00,40.00,6,2,20,6.38
2014-5-24,67.0,58.8,54.0,56.0,49.7,-99.9,92,76,55,0.00,40.00,5,2,15,5.80
2014-5-25,67.0,58.1,52.0,57.0,53.7,50.0,97,86,57,0.00,40.00,4,1,11,7.15
2014-5-26,65.0,56.9,53.0,55.0,53.0,51.0,98,88,60,0.00,40.00,6,2,14,13.85
2014-5-27,68.0,57.9,50.0,51.0,48.3,43.0,97,74,43,0.00,40.00,6,2,13,14.88
2014-5-28,58.0,53.3,51.0,53.0,50.1,47.0,96,89,69,0.00,40.00,5,2,17,16.17
2014-5-29,67.0,56.3,50.0,51.0,49.5,47.0,96,79,49,0.00,40.00,5,2,12,18.24
2014-5-30,77.0,59.9,45.0,56.0,50.4,44.0,97,75,46,0.00,40.00,5,1,12,9.88
2014-5-31,77.0,64.2,51.0,58.0,51.6,-99.9,95,68,45,0.00,40.00,6,2,20,18.24
2014-6-1,75.0,62.8,54.0,57.0,53.9,51.0,91,75,50,0.00,40.00,6,2,17,18.24
2014-6-2,78.0,65.5,52.0,59.0,55.3,51.0,96,72,52,0.00,40.00,6,2,16,15.96
2014-6-3,69.0,61.1,54.0,55.0,53.0,51.0,91,76,61,0.00,40.00,6,2,18,10.64
2014-6-4,73.0,62.3,54.0,57.0,52.5,48.0,92,72,51,0.00,40.00,8,2,18,16.72
2014-6-5,76.0,62.9,53.0,56.0,52.1,50.0,90,70,44,0.00,40.00,7,2,22,15.96
2014-6-6,80.0,63.3,50.0,52.0,47.6,40.0,95,62,25,0.00,40.00,5,2,13,16.72
2014-6-7,77.0,63.7,51.0,57.0,49.4,-99.9,86,63,45,0.00,40.00,6,2,17,15.96
2014-6-8,78.0,62.9,53.0,59.0,54.1,50.0,93,75,47,0.00,40.00,5,1,14,14.44
2014-6-9,73.0,63.9,58.0,57.0,53.7,51.0,88,71,47,0.00,40.00,5,2,14,18.24
2014-6-10,70.0,58.9,54.0,54.0,51.2,49.0,85,76,50,0.00,40.00,5,2,15,13.68
2014-6-11,78.0,61.6,50.0,57.0,51.9,49.0,96,74,41,0.00,40.00,7,1,22,14.44
2014-6-12,60.0,58.5,53.0,57.0,54.5,50.0,92,86,79,0.00,40.00,9,2,25,6.09
2014-6-13,57.0,54.7,52.0,54.0,51.9,51.0,96,90,84,0.00,40.00,5,2,14,10.09
2014-6-14,58.0,55.0,52.0,54.0,51.7,50.0,96,89,79,0.00,40.00,4,1,9,20.37
2014-6-15,60.0,55.0,51.0,57.0,51.8,50.0,95,89,74,0.00,40.00,7,2,17,22.71
2014-6-16,56.0,51.1,49.0,52.0,48.4,47.0,95,90,78,0.00,40.00,4,1,13,11.34
2014-6-17,56.0,55.6,55.0,54.0,54.0,52.0,95,94,94,0.00,40.00,1,0,8,3.90
2014-6-18,67.0,59.4,54.0,55.0,53.6,52.0,92,82,66,0.00,40.00,4,1,11,7.80
2014-6-19,80.0,73.1,64.0,57.0,54.5,50.0,72,54,43,0.00,40.00,7,4,17,18.20
2014-6-20,69.0,61.9,54.0,57.0,50.1,45.0,95,67,47,0.00,40.00,7,3,23,20.80
2014-6-21,75.0,61.0,47.0,55.0,50.5,46.0,96,72,49,0.00,40.00,5,2,10,2.60
2014-6-22,81.0,71.4,57.0,57.0,54.4,52.0,87,57,42,0.00,40.00,6,2,16,16.90
2014-6-23,70.0,66.1,61.0,58.0,53.7,51.0,74,64,58,0.00,40.00,4,3,13,5.20
2014-6-24,75.0,64.3,56.0,60.0,57.2,53.0,96,79,58,0.00,40.00,3,1,8,18.45
2014-6-25,75.0,67.6,59.0,63.0,59.4,56.0,96,77,53,0.00,40.00,3,1,9,10.49
2014-6-26,65.0,61.2,60.0,62.0,60.0,57.0,96,95,89,0.00,40.00,4,1,10,28.98
2014-6-27,66.0,59.5,57.0,63.0,58.4,56.0,97,96,91,0.00,40.00,5,1,15,35.42
2014-6-28,66.0,59.1,56.0,62.0,55.6,-99.9,98,92,84,0.00,40.00,4,1,10,66.40
2014-6-29,66.0,59.7,57.0,58.0,56.8,55.0,96,90,76,0.00,40.00,5,1,13,65.32
2014-6-30,87.0,69.2,53.0,65.0,56.4,52.0,97,70,33,0.00,40.00,3,1,9,62.48
2014-7-1,98.0,77.9,59.0,58.0,51.6,43.0,84,47,16,0.00,40.00,6,2,19,62.48
2014-7-2,83.0,72.0,62.0,62.0,59.0,56.0,86,65,45,0.00,40.00,6,2,16,68.16
2014-7-3,72.0,65.0,59.0,60.0,56.4,54.0,92,75,57,0.00,40.00,6,3,23,68.16
2014-7-4,80.0,67.8,57.0,58.0,56.3,54.0,92,69,43,0.00,40.00,6,2,16,68.16
2014-7-5,83.0,69.3,59.0,61.0,54.5,-99.9,92,65,39,0.00,40.00,7,2,18,65.32
2014-7-6,88.0,71.2,60.0,65.0,59.2,55.0,92,69,34,0.00,40.00,6,1,19,59.64
2014-7-7,88.0,75.4,62.0,69.0,64.3,61.0,95,71,43,0.00,40.00,6,2,17,68.16
2014-7-8,89.0,76.4,66.0,66.0,63.9,60.0,92,68,42,0.00,40.00,6,2,19,56.80
2014-7-9,84.0,73.6,63.0,65.0,61.9,59.0,88,69,50,0.00,40.00,7,3,18,59.64
2014-7-10,85.0,72.6,60.0,63.0,60.1,56.0,89,67,46,0.00,40.00,6,3,19,36.92
2014-7-11,89.0,74.5,59.0,63.0,58.8,56.0,93,62,33,0.00,40.00,6,2,14,68.16
2014-7-12,94.0,80.4,67.0,66.0,61.5,60.0,82,55,35,0.00,40.00,5,3,16,53.96
2014-7-13,87.0,76.2,67.0,72.0,67.0,63.0,87,74,49,0.00,40.00,5,1,12,68.16
2014-7-14,87.0,77.3,66.0,67.0,65.5,64.0,95,69,47,0.00,40.00,6,3,16,45.44
2014-7-15,92.0,81.9,68.0,66.0,64.8,64.0,87,60,40,0.00,40.00,7,3,14,19.88
2014-7-16,91.0,82.0,65.0,66.0,63.1,62.0,90,55,40,0.00,40.00,6,3,20,36.92
2014-7-17,80.0,72.7,62.0,62.0,57.1,51.0,88,61,40,0.00,40.00,7,4,20,56.80
2014-7-18,79.0,69.7,60.0,61.0,57.6,54.0,82,66,51,0.00,40.00,6,3,16,53.96
2014-7-19,82.0,70.9,63.0,66.0,60.6,59.0,89,70,53,0.00,40.00,7,3,25,48.28
2014-7-20,72.0,64.9,60.0,64.0,57.4,53.0,89,77,60,0.00,40.00,7,3,20,68.16
2014-7-21,79.0,67.5,55.0,58.0,54.3,50.0,87,64,41,0.00,40.00,6,2,16,65.32
2014-7-22,73.0,65.5,61.0,69.0,62.0,56.0,96,88,65,0.00,40.00,0,0,3,69.36
2014-7-23,66.0,61.6,55.0,65.0,60.6,54.0,98,97,95,0.00,40.00,5,1,18,83.39
2014-7-24,64.0,57.6,55.0,58.0,55.6,54.0,98,94,81,0.00,40.00,3,1,10,48.21
2014-7-25,78.0,68.3,56.0,61.0,56.9,55.0,97,68,48,0.00,40.00,6,2,15,53.13
2014-7-26,81.0,63.3,58.0,63.0,57.3,57.0,96,79,53,0.00,40.00,2,1,7,62.79
2014-7-27,86.0,74.5,59.0,67.0,63.7,58.0,96,71,50,0.00,40.00,6,1,11,67.62
2014-7-28,91.0,77.8,68.0,66.0,64.1,63.0,87,67,41,0.00,40.00,6,2,17,19.32
2014-7-29,91.0,82.0,67.0,62.0,60.3,59.0,83,50,36,0.00,40.00,5,2,12,14.49
2014-7-30,88.0,87.4,87.0,62.0,62.0,62.0,44,43,42,0.00,40.00,5,4,11,4.83
2014-7-31,75.0,74.0,73.0,64.0,63.5,63.0,72,70,68,0.00,40.00,0,0,0,4.83
2014-8-1,73.0,73.0,73.0,63.0,63.0,63.0,72,72,72,0.00,40.00,0,0,0,0.00
2014-8-2,81.0,67.9,64.0,67.0,60.0,61.0,92,72,53,0.00,40.00,2,0,4,33.81
2014-8-3,88.0,72.9,64.0,67.0,64.2,61.0,93,76,48,0.00,40.00,5,1,11,86.94
2014-8-4,92.0,77.6,68.0,64.0,60.9,56.0,85,60,31,0.00,40.00,3,0,12,43.47
2014-8-5,76.0,70.8,66.0,62.0,60.2,58.0,77,70,60,0.00,40.00,4,2,10,38.64
2014-8-6,79.0,74.1,69.0,63.0,61.9,61.0,77,66,59,0.00,40.00,4,2,12,19.32
2014-8-7,81.0,72.8,61.0,61.0,59.5,57.0,86,65,50,0.00,40.00,6,3,14,9.66
2014-8-9,67.0,66.5,65.0,58.0,58.0,58.0,77,75,74,0.00,40.00,2,2,5,4.83
2014-8-10,88.0,72.7,59.0,64.0,60.3,56.0,94,68,42,0.00,40.00,4,1,9,77.28
2014-8-11,73.0,67.9,63.0,64.0,60.8,58.0,83,78,73,0.00,40.00,0,0,0,28.98
2014-8-12,68.0,66.8,66.0,67.0,65.8,65.0,96,96,96,0.00,40.00,1,0,6,0.00
2014-8-13,78.0,70.2,66.0,66.0,64.1,62.0,97,82,66,0.00,40.00,7,2,16,0.00
2014-8-14,70.0,66.8,64.0,65.0,62.8,61.0,96,88,76,0.00,40.00,2,1,6,0.00
2014-8-15,73.0,69.5,65.0,65.0,64.5,64.0,96,84,75,0.00,40.00,3,1,7,0.00
2014-8-16,84.0,81.8,78.0,66.0,65.0,63.0,60,57,54,0.00,40.00,4,2,11,0.00
2014-8-17,85.0,78.2,69.0,66.0,64.7,64.0,83,64,52,0.00,40.00,5,2,12,0.00
2014-8-18,89.0,75.2,66.0,69.0,66.5,63.0,90,76,49,0.00,40.00,3,0,9,0.00
2014-8-19,79.0,71.8,66.0,67.0,64.8,61.0,95,80,57,0.00,40.00,5,2,18,0.00
2014-8-20,73.0,73.0,73.0,57.0,57.0,57.0,58,58,58,0.00,40.00,4,4,11,0.00
2014-8-22,79.0,77.2,73.0,58.0,57.8,57.0,59,51,48,0.00,40.00,5,4,13,0.00
2014-8-23,76.0,60.6,55.0,59.0,52.4,54.0,96,71,52,0.00,40.00,2,0,5,0.00
2014-8-24,80.0,69.2,57.0,59.0,56.6,53.0,97,66,48,0.00,40.00,5,2,10,0.00
2014-8-25,86.0,67.6,53.0,61.0,57.0,52.0,98,75,38,0.00,40.00,5,1,10,0.00
2014-8-26,90.0,71.6,58.0,63.0,58.2,54.0,94,68,31,0.00,40.00,4,1,11,0.00
2014-8-27,88.0,75.7,61.0,64.0,61.2,59.0,93,64,40,0.00,40.00,6,2,20,0.00
2014-8-28,80.0,70.2,59.0,63.0,60.1,57.0,95,72,49,0.00,40.00,6,1,16,0.00
2014-8-29,75.0,67.0,59.0,63.0,60.0,57.0,95,79,55,0.00,40.00,7,2,20,0.00
2014-8-30,71.0,62.4,60.0,62.0,57.6,55.0,96,83,71,0.00,40.00,7,2,21,0.00
2014-8-31,70.0,62.1,55.0,56.0,55.2,54.0,96,79,62,0.00,40.00,4,1,15,0.00
2014-9-1,79.0,66.6,53.0,59.0,55.5,52.0,97,70,46,0.00,40.00,4,1,13,0.00
2014-9-2,71.0,62.0,55.0,59.0,56.4,54.0,96,83,56,0.00,40.00,8,3,22,0.00
2014-9-3,69.0,58.4,54.0,57.0,54.4,53.0,96,87,65,0.00,40.00,6,2,16,0.00
2014-9-4,84.0,64.3,48.0,58.0,52.9,47.0,98,73,35,0.00,40.00,3,1,8,0.00
2014-9-5,90.0,75.4,55.0,54.0,45.4,38.0,88,42,17,0.00,40.00,6,2,16,0.00
2014-9-6,93.0,87.8,72.0,51.0,43.2,38.0,46,23,15,0.00,40.00,4,2,10,0.00
2014-9-14,92.0,83.1,66.0,49.0,41.1,33.0,49,26,13,0.00,40.00,3,1,7,0.00
2014-9-15,93.0,84.1,67.0,54.0,50.3,42.0,63,34,18,0.00,40.00,2,1,6,0.00
2014-9-16,76.0,69.0,60.0,61.0,57.7,53.0,85,68,54,0.00,40.00,6,2,16,0.00
2014-9-17,78.0,67.9,59.0,62.0,59.0,57.0,94,75,48,0.00,40.00,4,1,15,0.00
2014-9-18,68.0,64.5,62.0,61.0,60.2,59.0,95,86,76,0.00,40.00,5,2,14,0.00
2014-9-19,81.0,69.7,62.0,61.0,59.8,57.0,94,73,48,0.00,40.00,5,1,11,0.00
2014-9-20,93.0,73.0,56.0,62.0,53.7,49.0,97,58,23,0.00,40.00,5,1,12,0.00
2014-9-21,92.0,80.6,67.0,63.0,58.1,51.0,66,48,25,0.00,40.00,6,2,16,0.00
2014-9-22,75.0,68.6,63.0,64.0,61.7,60.0,95,79,64,0.00,40.00,5,1,12,0.00
2014-9-23,66.0,62.0,59.0,64.0,60.4,58.0,97,94,90,0.00,40.00,1,0,4,0.00
2014-9-24,64.0,62.0,59.0,63.0,61.0,58.0,98,97,97,0.00,40.00,0,0,0,0.00
2014-9-25,73.0,62.2,57.0,63.0,58.6,55.0,98,90,55,0.00,40.00,3,0,6,0.00
2014-9-26,63.0,58.9,56.0,62.0,57.8,55.0,98,97,93,0.00,40.00,1,0,3,0.00
2014-9-27,74.0,61.1,54.0,62.0,56.7,53.0,98,86,64,0.00,40.00,4,1,11,0.00
2014-9-28,77.0,60.4,52.0,60.0,55.3,51.0,98,86,53,0.00,40.00,4,1,11,0.00
2014-10-4,78.0,66.6,58.0,65.0,58.3,56.0,95,73,47,0.00,40.00,2,0,4,0.00
2014-10-5,82.0,65.2,54.0,63.0,58.0,53.0,98,81,46,0.00,40.00,5,1,14,0.00
2014-10-6,83.0,67.2,56.0,65.0,60.3,55.0,98,81,46,0.00,40.00,4,1,11,0.00
2014-10-21,58.0,54.5,53.0,57.0,53.5,52.0,98,98,95,0.00,40.00,0,0,4,5.03
2014-10-22,56.0,54.0,53.0,55.0,53.0,52.0,99,98,98,0.00,40.00,1,0,7,25.75
2014-10-23,58.0,52.4,50.0,56.0,51.8,49.0,99,98,93,0.00,40.00,2,0,9,58.13
2014-10-24,55.0,50.8,47.0,54.0,50.2,47.0,99,98,96,0.00,40.00,2,0,9,64.50
2014-10-25,60.0,54.1,50.0,58.0,52.7,49.0,98,95,88,0.00,40.00,9,2,28,68.09
2014-10-26,52.0,49.0,46.0,51.0,48.0,45.0,99,97,95,0.00,40.00,6,2,16,84.75
2014-10-27,59.0,48.7,42.0,52.0,46.8,42.0,99,94,65,0.00,40.00,2,0,3,82.80
2014-10-28,54.0,51.2,48.0,54.0,50.5,47.0,99,98,97,0.00,40.00,0,0,0,96.35
2014-10-29,62.0,55.5,53.0,58.0,54.5,52.0,99,97,85,0.00,40.00,1,0,4,110.01
2014-10-30,58.0,55.3,53.0,57.0,54.3,52.0,98,98,98,0.00,40.00,1,0,4,84.96
2014-10-31,56.0,52.8,48.0,55.0,52.0,47.0,99,98,95,0.00,40.00,4,0,10,0.00
2014-11-1,51.0,48.1,47.0,50.0,47.1,46.0,99,96,92,0.00,40.00,5,1,11,0.00
2014-11-2,54.0,50.1,46.0,52.0,48.7,45.0,98,96,87,0.00,40.00,3,1,12,0.00
2014-11-3,55.0,52.4,50.0,54.0,51.6,49.0,99,98,98,0.00,40.00,0,0,0,0.00
2014-11-4,57.0,53.8,50.0,56.0,53.2,49.0,99,98,95,0.00,40.00,4,0,12,0.00
2014-11-5,57.0,53.6,49.0,56.0,52.9,48.0,99,98,96,0.00,40.00,0,0,0,0.00
2014-11-6,59.0,55.2,50.0,58.0,54.3,49.0,100,98,96,0.00,40.00,7,2,20,0.00
2014-11-7,58.0,49.5,42.0,50.0,46.6,41.0,99,91,67,0.00,40.00,5,1,11,0.00
2014-11-8,62.0,46.2,40.0,52.0,43.7,40.0,99,92,61,0.00,40.00,1,0,4,0.00
2014-11-9,51.0,46.9,43.0,50.0,46.3,42.0,99,98,92,0.00,40.00,8,2,27,0.00
2014-11-10,56.0,46.2,38.0,48.0,44.0,38.0,99,93,71,0.00,40.00,2,0,4,0.00
2014-11-11,42.0,38.4,32.0,38.0,24.6,13.0,96,59,37,0.00,40.00,5,3,21,0.00
2014-11-12,31.0,29.9,29.0,15.0,13.8,12.0,52,50,47,0.00,40.00,6,4,27,0.00
2014-12-1,44.0,35.4,29.0,38.0,32.9,28.0,98,91,78,0.00,40.00,2,0,5,0.00
2014-12-2,45.0,36.2,30.0,39.0,31.6,29.0,98,85,61,0.00,40.00,3,1,9,0.00
2014-12-3,47.0,44.4,41.0,37.0,33.8,29.0,85,67,58,0.00,40.00,4,1,12,0.00
2014-12-4,46.0,43.0,40.0,45.0,41.9,37.0,99,97,87,0.00,40.00,0,0,0,0.00
2014-12-5,50.0,46.7,44.0,50.0,46.7,44.0,99,99,99,0.00,40.00,1,0,4,0.00
2014-12-6,48.0,45.7,44.0,48.0,45.7,44.0,99,97,99,0.00,40.00,0,0,1,0.00
2014-12-7,53.0,46.0,40.0,52.0,45.4,40.0,99,98,95,0.00,40.00,1,0,4,0.00
2014-12-8,52.0,48.4,44.0,51.0,47.5,44.0,99,97,94,0.00,40.00,1,0,4,0.00
2014-12-9,56.0,51.1,49.0,56.0,51.1,49.0,100,98,99,0.00,40.00,0,0,2,0.00
2014-12-10,54.0,49.4,48.0,54.0,49.4,48.0,100,96,100,0.00,40.00,2,0,7,0.00
2014-12-11,54.0,49.0,44.0,51.0,47.7,44.0,100,94,81,0.00,40.00,4,1,10,0.00
2014-12-12,51.0,47.6,45.0,49.0,46.8,44.0,99,97,92,0.00,40.00,3,1,8,0.00
2014-12-13,51.0,44.8,40.0,48.0,43.6,39.0,99,96,83,0.00,40.00,1,0,6,0.00
2014-12-14,52.0,43.0,34.0,41.0,36.4,34.0,99,79,58,0.00,40.00,3,1,12,0.00
2014-12-15,51.0,45.4,43.0,38.0,35.8,33.0,77,69,59,0.00,40.00,3,1,11,0.00
2014-12-16,50.0,44.7,38.0,43.0,39.5,36.0,97,82,67,0.00,40.00,2,0,8,0.00
2014-12-17,48.0,43.8,38.0,46.0,42.7,37.0,98,97,92,0.00,40.00,1,0,5,0.00
2014-12-18,47.0,44.6,41.0,47.0,44.5,41.0,99,99,98,0.00,40.00,0,0,1,0.00
2014-12-19,49.0,45.5,43.0,48.0,45.2,43.0,99,99,96,0.00,40.00,1,0,3,0.00
2014-12-20,55.0,41.6,42.0,55.0,40.0,42.0,100,97,98,0.00,40.00,8,0,23,0.00
2014-12-21,55.0,49.8,46.0,54.0,48.8,45.0,98,97,95,0.00,40.00,7,3,18,0.00
2014-12-22,51.0,45.3,40.0,47.0,44.0,39.0,99,95,81,0.00,40.00,4,1,13,0.00
2014-12-23,47.0,43.4,40.0,47.0,43.4,40.0,100,99,99,0.00,40.00,3,0,10,0.00
2014-12-24,45.0,40.8,38.0,45.0,40.2,38.0,99,98,96,0.00,40.00,5,2,14,0.00
2014-12-25,47.0,41.2,38.0,42.0,39.7,37.0,98,95,84,0.00,40.00,4,1,9,0.00
2014-12-26,44.0,39.6,35.0,41.0,38.7,35.0,99,97,89,0.00,40.00,0,0,1,0.00
2014-12-27,44.0,39.7,38.0,44.0,39.4,38.0,99,97,97,0.00,40.00,5,1,15,0.00
2014-12-28,44.0,40.4,37.0,42.0,39.3,36.0,98,97,92,0.00,40.00,6,3,19,0.00
2014-12-29,41.0,35.6,31.0,34.0,28.3,23.0,95,75,61,0.00,40.00,3,0,15,0.00
2014-12-30,35.0,30.1,25.0,25.0,21.8,18.0,95,72,53,0.00,40.00,2,0,10,0.00
2014-12-31,41.0,27.7,25.0,32.0,26.2,24.0,98,95,71,0.00,40.00,0,0,0,0.00
2015-1-1,48.0,36.0,29.0,37.0,33.2,29.0,98,90,65,0.00,40.00,0,0,3,0.00
2015-1-2,41.0,37.4,32.0,40.0,36.0,32.0,99,96,83,0.00,40.00,5,2,13,0.00